STARLINK-11316, 61875

Orbit data source: Space-Track

STARLINK-11316, 61875 is a payload satellite owned by SpaceX/Seattle (US) in LEO that was launched on Sat, 09 Nov 2024 UTC via an FALCON 9 launch vehicle from the Air Force Western Test Range (AFWTR). Payload-class satellites include a variety of spacecraft equipped with specific instruments for various scientific and technological missions. These include communications satellites like Starlink; space stations such as the ISS; scientific satellites like the Hubble; Earth observation satellites from companies like Planet Labs, Umbra, and HawkEye 360; GPS; miniature CubeSats for education and research; and military/defense satellites.

Loading next visibility...
Identifier
61875, 2024-204B
Orbit
LEO
Country
Flag of USUS
Related business
Manufacturer
SpaceX/Seattle
Mission
Operational Commercial Communications
Bus & Motor
STARLINK V2MD, Unknown motor
Mass
960 kg wet, ~910 kg dry
Launch date (UTC)
2024-11-09 (2 years ago)
Launch vehicle
FALCON 9
Launch site
Air Force Western Test Range (AFWTR)
Object type
Payload
Rocket body
Debris
Shape & HBR
Box + 2 Pan, 18.1 m
Radar Cross Section
36.964 m², Large (>1 m²)

Expand to show TLE details & history
Last TLE update: 13 hours ago

TLE from 13 hours ago
0 STARLINK-11316
1 61875U 24204B   26171.35271375 -.00000338  00000-0  20631-5 0  9991
2 61875  53.1601 209.8347 0000960  81.7656 278.3471 15.69709297 93049
Epoch: 2026-06-20T08:27Z
TLE epoch observation values (Epoch: 2026-06-20T08:27:54.468Z)
Latitude
0.00002°
Longitude
174.2892°
Altitude
360.55 km
Speed
7.694 km/s
True Right ascension
13h 59m 20s
True Declination
0° 00' 00"
Sunlit
Object was in full shadow at epoch
Visualization orbit readout
Latitude
Unknown
Longitude
Unknown
Altitude
Unknown
Speed
Unknown
Apparent Right ascension
Unknown
Apparent Declination
Unknown
Sunlit
N/A
Visualization observer readout
Local Sidereal Time
08:32:38
Azimuth
Unknown
Elevation
Unknown
Doppler factor
Unknown
Orbital elements
Apogee altitude
360.636 km
Perigee altitude
359.343 km
Semi-major axis
6,738.126 km
Eccentricity
0.0001
Inclination
53.1601°
RAAN
209.8347°
Arg. of periapsis
81.7656°
True anomaly
278.33622°
Mean anomaly
278.3471°
Eccentric anomaly
278.34166°
Mean motion
3.92405 °/min
Orbital period
91.74 mins
BSTAR
0.0000020631
Loading maneuver chart data...
Computing Atmospheric mass density...
Loading historical data...
Loading historical data...
Loading historical data...
Loading historical data...
Loading historical data...
Loading historical data...
Loading historical data...

Documentation

Showing up to 5 results
|